{"data":{"norad_id":69449,"epoch":"2026-09-20T02:46:19.155936Z","epoch_age_seconds":59948,"freshness":"FRESH","line1":"1 69449U 26127G   26263.11549949  .00015404  00000+0  46603-3 0  9996","line2":"2 69449  53.1567 167.4808 0000863  73.3788 286.7310 15.34405391 16131","mean_motion":15.34405391,"eccentricity":8.63e-5,"inclination_deg":53.1567,"raan_deg":167.4808,"arg_perigee_deg":73.3788,"mean_anomaly_deg":286.731,"bstar":0.00046603,"rev_number":1613,"period_min":93.847428355392,"perigee_km":462.09685393599,"apogee_km":463.27758019585,"semimajor_km":6840.8242170659,"source":"CELESTRAK","updated_at":"2026-09-20T09:00:44.199877Z"}}